Data for 11/13/2016

Time Sea-Level Adjusted Pressure Absolute Pressure Temperature Relative Humidity Dew Point   
(mb) (inHg) (mb) (inHg) (C) (F) (%) (C) (F)
00:05 1020 30.12 849 25.07 10.5 50.8 38 -3.3 26
00:10 1019 30.09 849 25.07 10.3 50.5 38 -3.4 25.9
00:15 1019 30.09 849 25.07 10.1 50.2 38 -3.5 25.7
00:20 1019 30.09 849 25.07 10 50 38 -3.8 25.2
00:25 1019 30.09 849 25.07 10.1 50.1 38 -3.7 25.3
00:30 1020 30.12 849 25.07 10 50 38 -3.7 25.4
00:35 1020 30.12 849 25.07 9.9 49.8 39 -3.3 26.1
00:40 1020 30.12 849 25.07 9.5 49.1 42 -2.8 27
00:45 1020 30.12 849 25.07 9 48.2 46 -2.1 28.3
00:50 1020 30.12 849 25.07 8.6 47.4 48 -1.7 28.9
00:55 1020 30.12 849 25.07 8.4 47.2 46 -2.4 27.8
01:00 1020 30.12 849 25.07 8.6 47.4 47 -2.2 28
01:05 1020 30.12 849 25.07 8.6 47.4 43 -3.3 26.1
01:10 1020 30.12 849 25.07 8.8 47.8 45 -2.4 27.7
01:15 1020 30.12 849 25.07 8.8 47.8 44 -2.6 27.3
01:20 1020 30.12 849 25.07 8.7 47.7 45 -2.5 27.6
01:25 1020 30.12 849 25.07 8.6 47.5 46 -2.3 27.9
01:30 1020 30.12 849 25.07 8.3 46.9 46 -2.7 27.2
01:35 1020 30.12 849 25.07 8.5 47.2 44 -3.1 26.4
01:40 1020 30.12 849 25.07 8.5 47.4 43 -3.5 25.8
01:45 1020 30.12 849 25.07 8.7 47.6 42 -3.5 25.7
01:50 1020 30.12 849 25.07 8.7 47.6 41 -3.7 25.3
01:55 1020 30.12 849 25.07 8.7 47.6 40 -4 24.7
02:00 1020 30.12 850 25.1 8.7 47.7 40 -4.1 24.6
02:05 1020 30.12 850 25.1 8.9 48.1 39 -4.2 24.5
02:10 1020 30.12 850 25.1 9 48.2 40 -4 24.8
02:15 1020 30.12 849 25.07 8.9 48 39 -4.3 24.2
02:20 1020 30.12 850 25.1 9 48.2 39 -4.3 24.3
02:25 1020 30.12 850 25.1 8.9 47.9 40 -4.1 24.7
02:30 1020 30.12 850 25.1 8.6 47.4 41 -4 24.7
02:35 1021 30.15 850 25.1 8.5 47.3 42 -3.8 25.1
02:40 1021 30.15 850 25.1 8.4 47.2 43 -3.5 25.7
02:45 1021 30.15 850 25.1 8.3 46.9 42 -3.8 25.2
02:50 1021 30.15 850 25.1 8.4 47.1 41 -4 24.8
02:55 1021 30.15 850 25.1 8.5 47.2 43 -3.4 26
03:00 1021 30.15 850 25.1 8.5 47.3 43 -3.3 26
03:05 1021 30.15 850 25.1 8.4 47.1 41 -4 24.8
03:10 1021 30.15 850 25.1 8.6 47.5 41 -3.8 25.1
03:15 1021 30.15 850 25.1 8.5 47.4 42 -3.5 25.7
03:20 1021 30.15 850 25.1 8.5 47.2 44 -3.1 26.3
03:25 1021 30.15 850 25.1 8.3 47 43 -3.5 25.7
03:30 1021 30.15 850 25.1 8.2 46.8 44 -3.4 25.9
03:35 1021 30.15 850 25.1 8 46.5 44 -3.5 25.7
03:40 1021 30.15 850 25.1 8 46.4 44 -3.6 25.5
03:45 1021 30.15 850 25.1 8 46.3 44 -3.5 25.8
03:50 1021 30.15 850 25.1 7.7 45.9 45 -3.5 25.7
03:55 1021 30.15 850 25.1 7.7 45.8 45 -3.5 25.6
04:00 1021 30.15 850 25.1 7.5 45.5 46 -3.4 25.8
04:05 1021 30.15 850 25.1 7.3 45.2 46 -3.7 25.4
04:10 1021 30.15 850 25.1 7.4 45.3 45 -3.7 25.3
04:15 1021 30.15 850 25.1 7.4 45.3 46 -3.5 25.7
04:20 1021 30.15 851 25.13 7.2 44.9 47 -3.5 25.7
04:25 1021 30.15 851 25.13 7 44.7 47 -3.5 25.7
04:30 1021 30.15 851 25.13 6.9 44.5 47 -3.6 25.6
04:35 1022 30.18 851 25.13 6.9 44.5 47 -3.5 25.6
04:40 1021 30.15 851 25.13 6.9 44.5 48 -3.4 25.8
04:45 1022 30.18 851 25.13 6.6 44 49 -3.2 26.3
04:50 1022 30.18 851 25.13 6.4 43.4 50 -3.3 26
04:55 1022 30.18 851 25.13 6.3 43.4 51 -3.1 26.4
05:00 1022 30.18 851 25.13 6.3 43.3 51 -3.2 26.3
05:05 1022 30.18 851 25.13 6.1 42.9 51 -3.2 26.2
05:10 1022 30.18 851 25.13 6.3 43.3 49 -3.8 25.2
05:15 1022 30.18 851 25.13 6.8 44.3 47 -3.7 25.4
05:20 1022 30.18 851 25.13 7 44.6 47 -3.5 25.7
05:25 1022 30.18 851 25.13 7 44.5 47 -3.6 25.5
05:30 1022 30.18 851 25.13 7.2 45 45 -3.9 25.1
05:35 1022 30.18 851 25.13 7.6 45.7 45 -3.6 25.5
05:40 1022 30.18 851 25.13 7.6 45.6 46 -3.4 25.9
05:45 1022 30.18 851 25.13 7.4 45.4 46 -3.5 25.6
05:50 1022 30.18 851 25.13 7.5 45.6 45 -3.5 25.6
05:55 1022 30.18 851 25.13 7.6 45.7 45 -3.6 25.5
06:00 1022 30.18 851 25.13 7.7 45.8 44 -3.6 25.5
06:05 1022 30.18 851 25.13 7.8 46.1 44 -3.6 25.4
06:10 1022 30.18 851 25.13 7.9 46.3 44 -3.6 25.5
06:15 1022 30.18 851 25.13 8 46.4 44 -3.5 25.8
06:20 1022 30.18 851 25.13 7.9 46.2 45 -3.4 25.9
06:25 1022 30.18 851 25.13 7.7 45.9 45 -3.4 25.8
06:30 1022 30.18 851 25.13 7.5 45.6 46 -3.3 26.1
06:35 1022 30.18 851 25.13 7.4 45.4 47 -3.2 26.3
06:40 1022 30.18 851 25.13 7.2 44.9 48 -3.1 26.4
06:45 1022 30.18 851 25.13 6.6 43.8 52 -2.7 27.1
06:50 1022 30.18 851 25.13 6.3 43.3 50 -3.3 26
06:55 1022 30.18 851 25.13 6.5 43.6 50 -3.3 26.1
07:00 1022 30.18 851 25.13 6.5 43.7 49 -3.3 26.1
07:05 1022 30.18 851 25.13 6.7 44.1 47 -3.7 25.4
07:10 1022 30.18 851 25.13 7 44.6 47 -3.5 25.7
07:15 1022 30.18 851 25.13 7.1 44.7 47 -3.5 25.7
07:20 1022 30.18 851 25.13 7.3 45.1 46 -3.4 25.8
07:25 1022 30.18 851 25.13 7.3 45.2 47 -3.3 26.1
07:30 1022 30.18 851 25.13 7.2 45 48 -3.1 26.4
07:35 1022 30.18 852 25.16 7.2 44.9 47 -3.3 26.1
07:40 1022 30.18 852 25.16 7.2 44.9 47 -3.3 26.1
07:45 1022 30.18 852 25.16 7.2 45 47 -3.4 25.9
07:50 1022 30.18 851 25.13 7.2 45 47 -3.5 25.7
07:55 1022 30.18 851 25.13 7.3 45.1 46 -3.4 25.8
08:00 1022 30.18 851 25.13 7.2 44.9 47 -3.4 25.9
08:05 1022 30.18 851 25.13 7 44.7 47 -3.4 25.8
08:10 1023 30.21 852 25.16 6.8 44.2 49 -3.1 26.3
08:15 1023 30.21 852 25.16 6.5 43.8 50 -3.2 26.2
08:20 1022 30.18 852 25.16 6.4 43.6 53 -2.5 27.4
08:25 1023 30.21 852 25.16 6.4 43.5 51 -3.1 26.5
08:30 1022 30.18 852 25.16 6.3 43.4 50 -3.4 25.9
08:35 1022 30.18 852 25.16 6.5 43.7 50 -3.3 26.1
08:40 1023 30.21 852 25.16 6.5 43.7 50 -3.2 26.2
08:45 1023 30.21 852 25.16 6.4 43.5 51 -3 26.5
08:50 1023 30.21 852 25.16 6.2 43.2 51 -3.3 26.1
08:55 1023 30.21 852 25.16 6.6 43.9 50 -3 26.6
09:00 1023 30.21 852 25.16 6.9 44.4 49 -3.1 26.4
09:05 1023 30.21 852 25.16 7.1 44.8 49 -3 26.7
09:10 1023 30.21 852 25.16 7.1 44.8 48 -3.2 26.2
09:15 1023 30.21 852 25.16 7.6 45.7 46 -3.3 26
09:20 1023 30.21 852 25.16 7.8 46.1 46 -3 26.6
09:25 1023 30.21 852 25.16 7.7 45.9 47 -2.9 26.8
09:30 1023 30.21 852 25.16 6.5 43.7 52 -2.7 27.2
09:35 1023 30.21 852 25.16 6.2 43.2 51 -3.3 26.1
09:40 1023 30.21 853 25.19 6.9 44.5 48 -3.2 26.3
09:45 1023 30.21 853 25.19 7.7 45.8 45 -3.4 25.8
09:50 1023 30.21 853 25.19 8.4 47.2 45 -2.9 26.7
09:55 1024 30.24 853 25.19 8.1 46.6 46 -2.8 27
10:00 1024 30.24 853 25.19 7.8 46.1 47 -2.9 26.8
10:05 1024 30.24 853 25.19 7.7 45.9 46 -3.2 26.3
10:10 1024 30.24 853 25.19 7.7 45.8 47 -2.9 26.8
10:15 1024 30.24 853 25.19 7.6 45.6 48 -2.8 27
10:20 1024 30.24 853 25.19 7.7 45.8 47 -2.9 26.8
10:25 1024 30.24 853 25.19 7.8 46 46 -3 26.7
10:30 1024 30.24 853 25.19 8.2 46.8 46 -2.6 27.2
10:35 1024 30.24 853 25.19 8.2 46.7 47 -2.6 27.3
10:40 1024 30.24 853 25.19 8.1 46.7 49 -1.9 28.5
10:45 1024 30.24 853 25.19 7.6 45.6 50 -2.2 28.1
10:50 1024 30.24 853 25.19 7.5 45.5 49 -2.6 27.3
10:55 1024 30.24 853 25.19 7.4 45.4 50 -2.3 27.8
11:00 1023 30.21 853 25.19 7.8 46.1 47 -2.7 27.2
11:05 1023 30.21 853 25.19 8.7 47.6 43 -3 26.6
11:10 1024 30.24 853 25.19 9.6 49.2 42 -2.8 26.9
11:15 1024 30.24 853 25.19 9.9 49.8 40 -3.1 26.4
11:20 1024 30.24 853 25.19 10.2 50.3 38 -3.3 26
11:25 1024 30.24 853 25.19 10.9 51.7 36 -3.4 25.8
11:30 1024 30.24 853 25.19 11.1 52 36 -3.5 25.7
11:35 1023 30.21 853 25.19 11.3 52.3 35 -3.5 25.8
11:40 1023 30.21 853 25.19 11.2 52.2 36 -3.3 26.1
11:45 1024 30.24 853 25.19 11.5 52.7 35 -3.5 25.7
11:50 1024 30.24 853 25.19 11.2 52.2 37 -2.8 27
11:55 1024 30.24 853 25.19 10.8 51.4 37 -3.3 26
12:00 1024 30.24 853 25.19 11.7 53 34 -3.5 25.6
12:05 1024 30.24 853 25.19 11.8 53.2 35 -3.3 26.1
12:10 1024 30.24 853 25.19 11.6 52.8 35 -3.4 25.9
12:15 1023 30.21 853 25.19 12.2 53.9 33 -3.6 25.4
12:20 1023 30.21 853 25.19 12.6 54.6 33 -3.2 26.2
12:25 1023 30.21 852 25.16 12.6 54.7 32 -3.4 25.8
12:30 1023 30.21 852 25.16 12.5 54.5 33 -3.4 25.8
12:35 1023 30.21 852 25.16 12.8 55.1 31 -3.7 25.3
12:40 1023 30.21 852 25.16 13.2 55.7 31 -3.6 25.5
12:45 1023 30.21 852 25.16 13.2 55.7 31 -3.4 25.9
12:50 1023 30.21 852 25.16 12.8 55.1 32 -3.4 25.8
12:55 1023 30.21 852 25.16 13.1 55.5 31 -3.6 25.5
13:00 1023 30.21 852 25.16 14 57.3 30 -3.2 26.3
13:05 1023 30.21 852 25.16 13.7 56.7 31 -2.9 26.7
13:10 1022 30.18 852 25.16 13.2 55.7 31 -3.4 25.8
13:15 1022 30.18 852 25.16 12.7 54.9 33 -3.1 26.4
13:20 1022 30.18 852 25.16 12.7 54.9 33 -3.3 26.1
13:25 1022 30.18 852 25.16 12.9 55.1 32 -3.2 26.3
13:30 1022 30.18 852 25.16 12.7 54.9 32 -3.5 25.7
13:35 1022 30.18 852 25.16 13.6 56.4 31 -3.3 26
13:40 1022 30.18 852 25.16 13.5 56.3 32 -2.9 26.7
13:45 1022 30.18 852 25.16 13.5 56.3 32 -2.9 26.8
13:50 1022 30.18 852 25.16 14 57.2 29 -3.5 25.7
13:55 1022 30.18 852 25.16 14.7 58.4 28 -3.4 26
14:00 1022 30.18 852 25.16 14.8 58.6 29 -3 26.6
14:05 1022 30.18 852 25.16 14.3 57.7 30 -3 26.6
14:10 1022 30.18 851 25.13 14.2 57.6 29 -3.3 26
14:15 1022 30.18 851 25.13 14.5 58.1 29 -3.5 25.7
14:20 1022 30.18 851 25.13 14.8 58.6 30 -2.6 27.4
14:25 1022 30.18 851 25.13 14.8 58.7 28 -3.3 26
14:30 1022 30.18 851 25.13 15.3 59.5 28 -3.1 26.4
14:35 1022 30.18 851 25.13 15.6 60.2 27 -3.2 26.3
14:40 1022 30.18 851 25.13 15.5 59.9 28 -2.8 27
14:45 1022 30.18 851 25.13 15 59.1 28 -3.1 26.4
14:50 1022 30.18 851 25.13 15.4 59.7 27 -3.2 26.2
14:55 1022 30.18 851 25.13 15.8 60.4 28 -2.7 27.2
15:00 1022 30.18 851 25.13 14.9 58.9 28 -3.4 25.9
15:05 1022 30.18 851 25.13 14.9 58.9 28 -3.5 25.7
15:10 1022 30.18 851 25.13 15.7 60.2 26 -3.9 25.1
15:15 1022 30.18 851 25.13 16.1 60.9 25 -4 24.7
15:20 1022 30.18 851 25.13 15.9 60.7 25 -4.1 24.6
15:25 1022 30.18 851 25.13 16.1 60.9 24 -4.3 24.3
15:30 1022 30.18 851 25.13 16 60.7 25 -4.2 24.5
15:35 1022 30.18 851 25.13 15.6 60.2 25 -4.2 24.4
15:40 1022 30.18 851 25.13 15.6 60 25 -4.3 24.2
15:45 1022 30.18 851 25.13 15.1 59.2 25 -4.6 23.7
15:50 1022 30.18 851 25.13 15.1 59.1 26 -4.4 24.2
15:55 1022 30.18 851 25.13 14.7 58.5 27 -4.2 24.5
16:00 1022 30.18 851 25.13 14.5 58.1 27 -4.2 24.5
16:05 1022 30.18 851 25.13 14.4 58 27 -4 24.7
16:10 1022 30.18 851 25.13 14.2 57.5 28 -3.9 24.9
16:15 1022 30.18 851 25.13 14 57.2 28 -4.1 24.7
16:20 1022 30.18 851 25.13 13.9 57 28 -4.1 24.6
16:25 1022 30.18 851 25.13 13.7 56.7 29 -4.1 24.6
16:30 1022 30.18 851 25.13 13.7 56.7 29 -4 24.8
16:35 1022 30.18 851 25.13 13.6 56.5 29 -4 24.8
16:40 1022 30.18 851 25.13 13.6 56.5 29 -3.9 25
16:45 1022 30.18 851 25.13 13.6 56.4 30 -3.8 25.2
16:50 1021 30.15 851 25.13 13.5 56.3 30 -3.8 25.1
16:55 1021 30.15 851 25.13 13.5 56.3 30 -3.9 25.1
17:00 1021 30.15 851 25.13 13.5 56.4 30 -3.7 25.3
17:05 1021 30.15 851 25.13 13.7 56.6 30 -3.6 25.5
17:10 1021 30.15 851 25.13 13.6 56.6 30 -3.5 25.8
17:15 1021 30.15 851 25.13 13.1 55.6 31 -3.5 25.7
17:20 1021 30.15 851 25.13 12.5 54.5 32 -3.6 25.5
17:25 1021 30.15 851 25.13 12.4 54.3 33 -3.3 26.1
17:30 1021 30.15 850 25.1 12.5 54.5 32 -3.9 25.1
17:35 1021 30.15 850 25.1 12.6 54.7 31 -3.9 25
17:40 1021 30.15 850 25.1 12.2 53.9 33 -3.7 25.3
17:45 1021 30.15 851 25.13 11.9 53.4 33 -3.7 25.3
17:50 1021 30.15 851 25.13 11.7 53 34 -3.4 25.8
17:55 1021 30.15 851 25.13 11.4 52.6 34 -3.8 25.1
18:00 1021 30.15 851 25.13 11.6 52.8 33 -4.1 24.7
18:05 1021 30.15 851 25.13 11.8 53.3 32 -4.2 24.4
18:10 1021 30.15 850 25.1 12 53.6 32 -4.1 24.7
18:15 1021 30.15 850 25.1 11.9 53.4 34 -3.6 25.6
18:20 1021 30.15 851 25.13 11.4 52.5 38 -2.2 28
18:25 1021 30.15 851 25.13 10.6 51 42 -1.9 28.6
18:30 1021 30.15 851 25.13 10.2 50.3 42 -2.1 28.1
18:35 1021 30.15 850 25.1 10 49.9 42 -2.4 27.7
18:40 1021 30.15 850 25.1 9.6 49.3 44 -2.1 28.2
18:45 1021 30.15 850 25.1 9.4 49 43 -2.5 27.5
18:50 1021 30.15 850 25.1 9.5 49 43 -2.6 27.3
18:55 1021 30.15 850 25.1 9.3 48.7 43 -2.6 27.4
19:00 1021 30.15 850 25.1 9 48.3 44 -2.4 27.6
19:05 1021 30.15 850 25.1 8.7 47.7 45 -2.7 27.2
19:10 1021 30.15 850 25.1 8.4 47.1 47 -2.2 28
19:15 1021 30.15 850 25.1 8 46.4 48 -2.4 27.8
19:20 1021 30.15 850 25.1 8.1 46.5 46 -2.8 26.9
19:25 1021 30.15 850 25.1 8.4 47.1 45 -2.9 26.8
19:30 1021 30.15 850 25.1 8.3 46.9 46 -2.7 27.1
19:35 1021 30.15 850 25.1 7.9 46.3 48 -2.3 27.9
19:40 1021 30.15 850 25.1 7.5 45.6 47 -3 26.7
19:45 1021 30.15 850 25.1 7.7 45.8 47 -2.8 27
19:50 1021 30.15 850 25.1 7.6 45.6 47 -3.1 26.5
19:55 1021 30.15 850 25.1 7.8 46 45 -3.4 25.9
20:00 1021 30.15 850 25.1 8.2 46.8 43 -3.6 25.5
20:05 1021 30.15 850 25.1 8.5 47.3 42 -3.6 25.5
20:10 1021 30.15 850 25.1 8.9 48 41 -3.7 25.3
20:15 1021 30.15 850 25.1 9.1 48.4 40 -3.9 24.9
20:20 1021 30.15 850 25.1 9.4 48.8 39 -3.8 25.1
20:25 1021 30.15 850 25.1 9.4 48.9 39 -3.7 25.4
20:30 1021 30.15 850 25.1 9.2 48.5 42 -3.2 26.3
20:35 1021 30.15 850 25.1 8.6 47.4 44 -3.1 26.5
20:40 1021 30.15 850 25.1 8.2 46.8 42 -3.8 25.2
20:45 1020 30.12 850 25.1 8.9 48 41 -3.7 25.3
20:50 1020 30.12 850 25.1 9 48.2 40 -4 24.9
20:55 1020 30.12 850 25.1 9 48.2 40 -3.8 25.2
21:00 1020 30.12 850 25.1 9.1 48.3 40 -3.7 25.4
21:05 1020 30.12 850 25.1 9.2 48.6 40 -3.6 25.6
21:10 1020 30.12 850 25.1 9 48.3 41 -3.4 25.9
21:15 1021 30.15 850 25.1 8.9 48.1 41 -3.5 25.6
21:20 1021 30.15 850 25.1 9 48.2 42 -3.2 26.2
21:25 1021 30.15 850 25.1 9 48.1 43 -3.1 26.5
21:30 1021 30.15 850 25.1 8.7 47.7 43 -3.1 26.5
21:35 1021 30.15 850 25.1 8.3 46.9 44 -3.1 26.4
21:40 1021 30.15 850 25.1 8.1 46.6 44 -3.3 26.1
21:45 1021 30.15 850 25.1 8.2 46.8 45 -3.1 26.5
21:50 1020 30.12 850 25.1 8 46.5 45 -3.1 26.5
21:55 1020 30.12 850 25.1 8.1 46.5 45 -3.1 26.5
22:00 1021 30.15 850 25.1 8.2 46.7 44 -3.5 25.8
22:05 1020 30.12 850 25.1 8.6 47.5 43 -3.2 26.2
22:10 1020 30.12 850 25.1 8.7 47.7 42 -3.4 26
22:15 1020 30.12 849 25.07 8.9 48 42 -3.3 26.1
22:20 1020 30.12 849 25.07 8.9 48 44 -2.7 27.2
22:25 1020 30.12 849 25.07 8.8 47.8 44 -2.8 26.9
22:30 1020 30.12 849 25.07 8.8 47.9 42 -3.2 26.2
22:35 1020 30.12 849 25.07 9.2 48.6 42 -2.9 26.7
22:40 1020 30.12 849 25.07 9.1 48.4 41 -3.5 25.7
22:45 1020 30.12 849 25.07 9.4 48.9 42 -2.8 27
22:50 1020 30.12 849 25.07 9.5 49 43 -2.5 27.5
22:55 1020 30.12 849 25.07 9.3 48.7 43 -2.7 27.1
23:00 1020 30.12 849 25.07 9.5 49.1 39 -3.6 25.5
23:05 1020 30.12 849 25.07 9.9 49.8 40 -3.2 26.2
23:10 1020 30.12 849 25.07 10 50 41 -2.7 27.2
23:15 1020 30.12 849 25.07 9.8 49.6 41 -2.7 27.1
23:20 1020 30.12 849 25.07 9.9 49.7 41 -2.9 26.8
23:25 1020 30.12 849 25.07 10.2 50.3 40 -2.7 27.1
23:30 1020 30.12 849 25.07 10.6 51 38 -3.2 26.3
23:35 1020 30.12 849 25.07 11.2 52.2 36 -3.2 26.3
23:40 1020 30.12 849 25.07 11.6 52.8 36 -2.8 27
23:45 1020 30.12 849 25.07 11.8 53.3 36 -2.8 26.9
23:50 1020 30.12 849 25.07 12.1 53.8 36 -2.5 27.5
23:55 1020 30.12 849 25.07 12.3 54.1 35 -2.5 27.4
24:00 1020 30.12 849 25.07 12.3 54.1 36 -2.1 28.2